RH
44 21 13 11 10 10 10 9 8 7 6 6 5 5 6 6 8 52 22 12 13 10 18 28 27 19 20 16 14 12 22 16 16 27 15 14 16 17 18 24 24 24 29 35 41
72 33 16 13 11 10 10 9 8 7 6 6 5 5 5 6 30 15 10 12 11 10 24 18 16 15 16 14 14 15 42 18 11 18 15 14 14 18 21 25 26 28 28 38 42
95 68 25 15 12 10 9 9 8 7 7 6 5 5 5 9 20 8 10 8 12 12 12 13 11 13 15 11 10 12 29 18 12 12 13 14 15 15 19 25 25 30 32 36 40
97 90 55 26 12 10 10 9 8 7 6 6 5 5 7 39 14 13 9 10 11 25 15 10 10 10 13 11 8 12 14 13 12 13 14 14 14 16 16 17 19 24 27 33 37
96 50 24 20 15 11 10 10 8 6 6 5 5 6 41 19 10 18 12 12 23 19 16 9 10 8 11 8 8 10 10 10 10 12 12 14 15 15 16 16 18 23 27 32 34
85 34 23 17 13 11 10 10 8 6 5 4 5 16 42 16 7 12 13 19 15 15 10 8 8 6 7 8 8 8 9 9 9 10 13 16 16 17 15 16 20 26 29 29 31
53 28 24 19 12 9 8 7 6 5 5 7 13 62 23 13 8 9 14 12 11 11 9 7 6 5 5 7 6 8 10 10 11 10 13 13 18 17 15 19 22 26 29 28 29
33 28 26 19 12 9 7 5 5 8 20 29 40 53 20 10 11 9 10 10 10 10 9 6 5 5 6 6 7 9 9 12 11 10 11 14 20 18 16 18 21 25 28 29 29
51 29 25 14 10 8 7 7 12 31 52 51 66 37 15 15 13 11 11 11 9 8 10 8 7 6 6 8 9 10 12 12 14 11 14 16 21 18 18 18 20 23 26 28 29
57 25 28 15 10 8 5 26 50 80 84 66 46 32 16 11 9 10 10 9 7 9 9 8 7 8 7 9 13 14 12 12 17 12 15 17 21 18 18 19 17 20 22 27 28
58 38 22 17 11 10 17 25 30 41 38 16 14 11 9 8 11 9 10 8 6 9 10 7 7 8 8 9 9 10 11 11 10 10 14 17 16 18 19 20 19 18 20 24 26
62 51 25 20 11 19 37 12 11 12 11 7 7 7 6 6 7 8 8 9 7 10 8 7 8 6 7 8 9 9 10 12 10 11 12 15 17 14 20 21 19 19 19 21 23
64 65 44 18 12 38 14 14 13 12 10 6 5 6 5 5 6 6 5 8 8 8 8 6 5 5 6 8 10 10 10 11 11 16 15 14 18 15 15 19 20 18 18 18 20
70 66 58 27 20 17 13 16 15 12 12 7 7 6 6 6 7 5 6 6 9 8 7 7 4 5 6 8 8 11 9 10 10 17 22 13 21 17 14 16 21 20 19 18 19
75 65 60 40 45 21 13 13 13 12 15 7 8 7 8 10 9 8 7 6 9 8 7 7 6 6 6 6 7 9 8 10 10 13 27 14 16 17 13 15 17 20 20 18 18
70 61 57 37 40 29 20 17 14 15 16 8 8 11 11 9 8 9 8 6 6 8 7 6 4 4 5 5 6 7 8 10 10 12 17 15 17 18 18 14 13 14 18 19 18
68 58 53 59 19 18 17 13 14 15 8 8 8 8 8 8 8 10 10 9 10 11 11 8 6 5 4 6 6 7 10 14 16 16 16 12 17 29 13 10 11 11 11 16 19
58 43 48 39 29 26 20 12 18 10 9 6 6 8 8 7 7 8 10 10 8 8 8 11 11 7 5 5 6 8 9 13 22 18 15 12 16 13 10 9 8 8 8 10 17
63 34 25 20 25 27 16 13 13 11 7 7 7 8 9 7 7 7 9 10 8 8 10 9 11 6 5 5 5 7 9 8 11 11 13 11 11 9 10 10 9 8 8 8 14
73 45 23 19 34 31 21 17 10 7 5 6 9 7 10 9 8 8 8 7 8 7 6 8 11 7 5 5 4 5 6 10 10 21 19 12 12 12 12 11 9 9 8 8 10
63 24 22 26 36 31 24 16 12 8 6 6 8 9 7 7 7 8 8 6 6 7 7 7 9 9 7 7 7 6 6 8 9 11 15 16 13 8 10 11 10 9 8 8 10
40 32 22 28 34 24 25 18 17 10 7 6 6 7 9 8 8 8 9 7 6 6 8 8 9 13 10 6 5 5 6 6 12 18 12 12 11 7 7 8 8 8 7 7 10
43 31 22 17 24 18 16 15 14 13 11 9 8 6 6 8 10 9 8 6 7 8 9 8 12 15 14 9 7 7 6 5 6 10 18 15 12 7 7 7 8 8 8 8 9
50 34 18 17 17 17 18 17 16 11 13 12 12 9 7 8 7 9 9 7 6 7 26 14 11 14 14 14 7 8 7 5 6 9 11 11 12 10 9 9 8 8 8 9 9
55 38 26 33 23 40 41 50 32 38 20 16 16 13 11 11 9 9 9 8 7 12 13 12 17 13 11 10 9 7 6 5 6 7 10 10 10 10 10 9 8 7 8 8 8
78 54 40 38 35 36 39 36 26 27 27 31 21 16 13 15 13 10 9 10 12 9 12 12 20 16 14 10 9 10 8 6 6 6 6 7 9 7 7 8 8 8 8 8 8
79 68 56 43 35 29 24 31 29 18 20 30 32 41 31 19 22 20 19 11 10 14 16 19 20 26 26 16 15 16 11 9 8 7 6 8 7 6 8 9 9 8 8 9 10
Wind_Speed
22 20 20 20 20 21 23 23 22 21 20 20 21 23 22 23 20 6 12 11 12 13 12 12 16 14 15 16 16 14 9 1 6 18 15 11 11 7 11 13 11 4 18 23 26
23 23 22 23 21 21 23 25 25 24 23 21 20 22 22 22 18 23 20 17 18 15 15 19 15 14 13 14 13 8 8 8 8 17 17 10 12 12 12 14 13 8 24 27 26
23 23 23 23 22 22 24 27 26 26 25 24 22 21 21 17 17 9 10 2 22 23 20 19 17 14 17 17 14 13 12 20 10 8 12 13 11 12 12 12 16 15 21 23 25
25 25 25 24 23 23 25 26 26 26 27 26 24 22 15 7 7 9 5 7 7 19 21 19 18 17 19 17 15 14 16 13 6 7 5 13 13 12 8 13 15 16 20 23 22
25 27 28 28 26 25 26 26 27 26 25 26 25 21 7 9 17 10 7 5 11 17 22 18 20 19 20 18 15 12 10 4 4 8 9 13 11 11 9 8 15 18 20 22 21
25 26 28 29 28 29 27 29 28 27 25 25 22 9 7 18 10 6 7 11 14 20 23 21 17 18 18 21 17 12 12 9 4 10 10 10 12 9 13 11 16 19 20 21 22
27 28 30 31 31 29 30 30 31 29 25 20 13 5 12 19 5 7 12 12 13 18 18 25 24 18 19 18 17 13 10 13 10 9 11 12 14 13 18 14 17 18 18 20 21
28 30 32 33 33 32 33 31 29 25 16 8 4 7 9 9 10 15 14 15 14 16 20 17 23 21 20 18 21 19 17 16 14 14 12 16 18 17 15 17 17 18 17 19 22
30 29 33 33 33 36 37 29 22 12 3 7 5 8 12 9 11 15 17 17 16 15 16 13 14 21 16 17 16 16 17 20 13 16 14 16 12 18 18 18 17 17 17 18 20
32 31 34 33 33 39 34 15 12 0 1 5 10 7 11 14 13 10 10 15 14 13 12 16 13 18 19 18 17 19 21 20 18 17 13 16 8 19 17 17 17 17 17 18 20
34 33 34 37 37 35 21 6 5 7 15 13 7 11 4 8 8 12 12 14 17 16 17 19 17 23 26 25 23 22 20 19 16 24 19 18 16 15 15 14 16 19 18 19 20
35 35 36 38 37 14 9 8 7 8 13 19 26 27 27 18 13 19 16 15 18 19 20 16 24 24 24 25 24 27 23 18 12 17 21 18 19 18 19 15 15 17 20 20 21
35 36 38 39 22 5 15 11 3 14 9 17 25 23 24 22 24 21 23 22 19 23 23 24 22 25 26 26 26 25 24 20 17 25 22 15 17 17 15 20 16 17 18 22 23
36 37 39 41 11 18 7 2 9 12 7 13 11 9 13 13 16 22 22 27 23 24 24 25 21 25 28 28 26 24 24 25 20 12 13 19 16 21 19 21 20 19 19 21 23
36 39 39 30 19 10 8 8 10 7 7 10 12 18 19 16 12 17 22 26 26 22 18 25 26 25 30 30 29 26 24 24 23 17 20 24 17 11 21 21 22 21 21 22 23
36 38 41 17 14 16 15 12 9 7 14 9 11 15 19 20 14 8 15 23 21 21 23 24 22 27 24 28 23 24 22 23 23 19 19 22 17 19 17 19 16 22 22 22 22
38 40 34 21 10 2 5 8 7 12 4 12 16 19 21 18 19 14 18 24 23 22 22 22 28 23 24 24 25 28 24 16 19 18 20 22 18 18 18 16 20 18 20 24 23
39 35 20 16 12 14 11 9 16 12 28 3 17 20 24 19 18 19 17 20 27 24 16 20 21 29 22 28 28 31 27 19 23 18 18 23 23 21 21 14 9 14 15 20 23
37 22 20 17 14 14 10 16 14 21 17 19 12 20 23 23 20 20 22 22 24 26 24 18 25 20 29 26 27 29 28 27 27 23 20 21 26 24 11 14 19 18 20 14 21
27 25 24 15 10 14 11 27 22 32 15 14 24 19 21 23 21 21 20 20 23 26 26 20 17 23 25 24 27 34 24 26 22 27 25 22 22 16 19 20 20 17 17 13 17
18 6 6 6 11 10 17 23 27 34 29 26 22 24 25 23 25 25 24 23 20 24 25 24 18 16 24 31 31 20 27 23 25 23 21 20 18 20 12 13 20 21 23 16 15
12 7 8 6 10 10 19 26 25 28 23 28 22 25 24 24 20 20 18 23 17 19 26 24 16 15 21 25 27 29 28 32 18 28 20 22 18 14 16 17 15 14 12 11 19
8 12 23 19 14 15 22 27 28 28 27 27 25 29 24 26 23 21 19 21 8 15 19 20 19 16 21 20 24 30 29 31 33 22 26 22 20 21 5 10 15 15 18 19 7
6 6 8 10 13 21 22 23 23 21 21 21 23 26 26 30 25 22 25 23 16 14 5 8 20 23 18 22 19 26 31 31 30 23 22 26 25 22 21 14 13 14 12 12 6
5 9 8 11 10 13 15 20 16 20 20 23 22 28 27 25 27 26 26 20 26 17 13 15 21 23 25 24 19 23 29 30 33 30 28 24 30 26 25 22 19 19 16 18 15
5 6 7 12 19 19 15 19 18 18 16 24 22 23 24 24 22 23 26 23 20 20 20 20 18 18 20 23 24 24 22 30 29 32 33 33 31 25 26 24 18 19 18 18 18
9 16 7 8 16 15 13 17 24 18 14 14 22 16 22 9 16 18 19 16 23 17 22 20 16 17 20 21 18 23 27 25 24 27 27 29 30 27 29 26 24 25 21 21 22
Wind_Direction
353 349 348 346 344 343 342 338 334 331 327 325 324 323 326 323 317 260 249 254 208 233 190 204 215 227 233 249 252 277 292 246 261 47 121 142 125 136 99 134 156 108 132 144 150
352 350 348 345 341 340 339 336 332 329 327 321 319 319 325 324 302 271 263 236 230 228 200 204 208 212 230 239 245 243 335 305 26 163 121 154 139 136 154 147 146 136 116 143 159
349 347 346 343 342 340 337 333 329 325 325 320 317 317 324 324 281 249 138 3 219 212 215 208 223 217 235 246 230 240 172 291 123 9 126 150 148 145 149 167 158 152 143 154 164
349 347 346 343 340 337 334 329 326 323 321 320 315 315 322 299 287 123 149 81 181 195 225 210 226 223 235 236 236 246 174 237 73 121 190 157 146 159 168 157 151 156 156 163 170
348 349 349 345 338 334 330 326 321 318 316 315 313 314 320 247 255 180 198 210 182 196 215 219 220 224 233 240 234 227 277 197 209 156 236 149 151 152 166 135 145 145 159 172 177
348 349 348 344 339 334 329 324 320 315 310 308 305 306 257 263 260 172 180 175 197 200 214 225 224 226 244 245 245 223 223 262 224 180 196 196 149 169 153 156 148 153 169 178 183
346 347 346 343 341 334 328 321 318 309 306 302 291 230 262 251 246 209 201 216 209 205 220 217 230 229 234 257 248 260 248 220 222 178 170 212 161 203 156 164 159 166 176 180 187
345 343 344 342 339 333 325 319 310 306 302 286 234 213 259 264 239 221 221 231 227 224 226 221 220 242 245 231 251 226 240 241 182 179 156 219 182 184 160 167 172 175 179 184 190
345 342 342 340 337 332 325 321 308 299 297 134 180 226 259 164 217 220 212 222 205 211 213 228 236 225 236 243 243 226 227 228 147 172 157 217 228 171 164 181 185 180 182 189 192
346 342 343 339 336 330 323 319 292 277 223 231 260 245 246 224 187 171 192 214 187 181 192 206 209 211 222 218 224 219 221 222 179 173 189 209 250 146 166 192 193 186 188 191 193
347 344 340 338 336 331 331 296 226 195 223 244 244 232 112 181 153 212 181 200 199 190 205 196 205 209 210 223 228 235 221 235 216 161 196 192 229 157 171 199 202 187 199 192 200
346 346 339 336 336 328 320 293 5 331 291 259 253 254 257 260 238 219 180 203 206 210 211 187 216 215 219 218 227 242 246 235 227 152 193 202 210 195 175 203 207 204 197 204 200
340 345 341 333 332 294 314 277 328 338 264 273 238 237 239 220 232 229 221 213 212 214 212 220 210 216 216 223 224 233 244 243 230 155 219 227 227 201 186 185 212 212 209 203 207
336 339 341 338 306 331 289 341 295 326 276 258 190 220 203 204 222 226 217 210 226 221 224 225 223 203 220 221 224 227 232 253 239 178 246 207 248 195 206 198 192 213 210 209 204
334 332 336 336 294 293 352 308 308 272 277 110 142 142 172 193 121 189 210 197 215 213 217 224 223 217 212 220 220 232 230 234 249 216 194 219 225 209 216 198 194 204 212 211 206
329 328 330 330 260 265 288 289 270 230 237 189 160 187 183 209 236 136 200 204 218 225 225 237 212 225 222 223 220 231 240 241 236 248 249 239 218 250 172 229 196 194 203 210 211
327 324 313 279 254 28 289 250 227 233 151 202 192 190 203 193 208 184 198 197 205 212 219 223 231 219 232 216 219 224 227 231 234 229 235 239 219 206 239 213 205 225 205 198 204
327 324 298 247 262 267 260 225 234 241 228 74 200 199 206 213 202 191 197 208 211 213 220 215 217 227 209 220 220 215 219 223 225 231 232 230 241 233 230 233 238 212 228 189 192
329 317 290 258 237 223 221 221 229 237 268 233 215 240 208 228 230 210 212 211 211 220 223 217 223 212 220 217 223 219 220 229 237 231 237 226 219 243 256 239 226 242 235 221 181
317 299 272 242 204 208 227 237 237 252 279 265 239 229 233 211 214 235 218 221 224 214 229 233 248 209 210 216 221 236 218 221 231 240 242 233 238 220 205 224 242 221 236 210 201
301 290 121 167 195 226 233 238 238 258 270 250 257 244 241 239 233 218 227 238 228 224 212 228 238 231 204 204 217 218 233 225 228 234 243 245 242 221 202 206 219 223 230 201 201
300 266 125 209 225 234 241 248 261 267 253 247 258 265 259 256 244 256 232 240 200 223 212 214 224 225 234 221 212 228 226 231 231 223 239 256 248 194 211 196 235 263 263 229 183
286 283 277 242 249 250 257 260 251 256 256 258 250 241 253 260 253 243 236 246 196 236 228 200 227 222 221 240 214 216 229 231 230 235 229 235 238 254 237 216 208 214 240 250 149
286 284 265 212 246 263 272 273 273 261 263 277 263 265 238 249 245 243 243 246 224 225 28 269 222 226 221 223 225 215 220 236 232 232 231 239 246 234 230 185 222 215 257 249 221
261 272 330 291 258 354 313 321 280 292 278 257 254 253 255 240 239 240 242 230 232 218 240 234 231 231 227 258 233 230 218 225 236 239 237 237 234 236 233 224 216 222 245 262 234
273 292 312 288 294 293 272 274 276 261 278 283 287 251 248 256 249 233 232 235 225 202 218 216 232 241 238 232 238 257 236 221 226 241 243 245 250 245 244 251 227 212 228 254 267
258 280 268 280 278 268 269 252 289 264 265 254 277 337 294 308 330 315 317 267 234 228 203 219 216 224 231 233 242 232 238 247 244 232 233 244 250 251 258 255 242 236 238 248 259